Skip Page Navigation
NASA JPL Caltech
NASA Logo - Jet Propulsion Laboratory + View the NASA Portal
+ Near-Earth Object (NEO) Program
Search JPL
JPL Home Earth Solar System Stars & Galaxies Technology
JPL Solar System Dynamics
BODIES ORBITS EPHEMERIDES TOOLS PHYSICAL DATA DISCOVERY FAQ SITE MAP
JPL Small-Body Database Browser
Search: [ help ]  
121 Hermione
Classification: Outer Main-belt Asteroid          SPK-ID: 2000121
Ephemeris | Orbit Diagram | Orbital Elements | Physical Parameters | Discovery Circumstances | Close-Approach Data ]

[ hide orbit diagram ]
Orbit Diagram
Note: Make sure you have Java enabled on your browser to see the applet. This applet is provided as a 3D orbit visualization tool. The applet was implemented using 2-body methods, and hence should not be used for determining accurate long-term trajectories (over several years or decades) or planetary encounter circumstances. For accurate long-term ephemerides, please instead use our Horizons system.
Orbit Viewer

Additional Notes: the orbits shown in the applet are color coded. The planets are white lines, and the asteroid/comet is a blue line. The bright white line indicates the portion of the orbit that is above the ecliptic plane, and the darker portion is below the ecliptic plane. Likewise for the asteroid/comet orbit, the light blue indicates the portion above the ecliptic plane, and the dark blue the portion below the ecliptic plane.

Orbit Viewer applet originally written and kindly provided by Osamu Ajiki (AstroArts), and further modified by Ron Baalke (JPL).


Orbital Elements at Epoch 2456400.5 (2013-Apr-18.0) TDB
Reference: JPL 66 (heliocentric ecliptic J2000)
 Element Value Uncertainty (1-sigma)   Units 
e .1345585644444362 3.6388e-08  
a 3.449966482708793 1.4095e-08 AU
q 2.985743945414077 1.2384e-07 AU
i 7.597531251259474 3.9302e-06 deg
node 73.14872152334678 2.7568e-05 deg
peri 298.3716072553191 3.1805e-05 deg
M 239.8526757149028 1.5053e-05 deg
tp 2457181.646233802865
(2015-Jun-08.14623380)
9.811e-05 JED
period 2340.565183971495
6.41
1.4344e-05
3.927e-08
d
yr
n .1538090041094896 9.4259e-10 deg/d
Q 3.914189020003509 1.5992e-08 AU
  Orbit Determination Parameters
   # obs. used (total)      1455  
   data-arc span      51448 days (140.86 yr)  
   first obs. used      1872-06-07  
   last obs. used      2013-04-17  
   planetary ephem.      DE405  
   SB-pert. ephem.      SB405-CPV-2  
   condition code      0  
   fit RMS      .61036  
   data source      ORB  
   producer      Otto Matic  
   solution date      2013-Apr-29 12:32:31  

Additional Information
 Earth MOID = 1.99575 AU 
 T_jup = 3.108 
[ show covariance matrix ]

Ephemeris | Orbit Diagram | Orbital Elements | Physical Parameters | Discovery Circumstances | Close-Approach Data ]

Physical Parameter Table
Parameter Symbol Value Units Sigma Reference Notes
absolute magnitude H 7.31 mag n/a IRAS-A-FPA-3-RDR-IMPS-V6.0 IRAS observations used: 16
diameter diameter 209.00 km 4.7 IRAS-A-FPA-3-RDR-IMPS-V6.0 IRAS observations used: 16
rotation period rot_per 5.55128 h n/a Asteroid Lightcurve DataBase (Rev. 2013-May-01) Published Reference List:
[Piironen, J.; Bowell, E.; Erikson, A.; Magnusson, P. (1994) Astron. Astrophys. Suppl. Ser. 106, 587-595.]
[Behrend, R. (2004) Observatoire de Geneve web site, http://obswww.unige.ch/~behrend/page_cou.html]
[Marchis, F.; Hestroffer, D.; Descamps, P.; Berthier, J.; et al. (2005) Icarus 178, 450-464.]
[Behrend, R. (2005) Observatoire de Geneve web site, http://obswww.unige.ch/~behrend/page_cou.html]
[Descampes, P.; Marchis, F.; Durech, J.; Emery, J.; et al. (2009) Icarus 203, 88-101.]
[Bin, L.; Haibin, Z.; Jingshen, Y. (2011) Minor Planet Bul. 38, 179-180.]
[Behrend, R. (2011) Observatoire de Geneve web site, http://obswww.unige.ch/~behrend/page_cou.html]
[Sergison, D. (2011) www.gothersobservatory.org.uk/lightcurves.htm]
[Kaasalainen, M.; Viikinkoski, M. (2012) Astron. Astrophys. 543, A97.]
geometric albedo albedo 0.0482   0.002 IRAS-A-FPA-3-RDR-IMPS-V6.0 IRAS observations used: 16
B-V BV .739 mag .033 EAR-A-5-DDR-UBV-MEAN-VALUES-V1.1 #obs=4; phase (min.=4.77, mean=13.89, max.=18.88) deg.
U-B UB .425 mag .087 EAR-A-5-DDR-UBV-MEAN-VALUES-V1.1 #obs=4; phase (min.=4.77, mean=13.89, max.=18.88) deg.
Tholen spectral type spec_T C   n/a EAR-A-5-DDR-TAXONOMY-V4.0 used 7 color indices; used ground-based radiometric albedo
SMASSII spectral type spec_B Ch   n/a EAR-A-5-DDR-TAXONOMY-V4.0 based on a high-resolution spectrum by Xu et al. (1995) or Bus and Binzel (2002)

121 Hermione          Discovered 1872-May-12 by Watson, J. C. at Ann Arbor
Reference: DISCOVERY.DBLast Updated: 2003-08-29

[ show close-approach data ]
Alternate Designations
 1970 VE 
Ephemeris | Orbit Diagram | Orbital Elements | Physical Parameters | Discovery Circumstances | Close-Approach Data ]
ABOUT SSD CREDITS/AWARDS PRIVACY/COPYRIGHT GLOSSARY LINKS
FirstGov 2013-May-21 14:58 UT
(server date/time)  
NASA Home Page
Site Manager:   Donald K. Yeomans
Webmaster  Alan B. Chamberlin